Location: Ahstedt
(52.2048°N, 10.1060°E)
Time: 23:15:59
(UTC+00:00)

COBE Rocket - Pass Details

Date: 18 January 2026
Orbit: 675 x 772 km, 97.1° (Epoch: 7 February)

Event Time Altitude Azimuth Distance (km) Brightness Sun altitude
Rises 06:32:23 0° 171° (S) 3,156 7.7 -7.0°
Reaches altitude 10° 06:34:39 10° 173° (S) 2,251 6.9 -6.7°
Maximum altitude 06:39:37 73° 259° (WSW) 796 4.0 -6.0°
Drops below altitude 10° 06:44:44 10° 344° (NNW) 2,317 6.1 -5.3°
Sets 06:47:05 0° 346° (NNW) 3,254 6.9 -5.0°
